Content
SEND FEEDBACK

Daily
Averages
Monthly
Summary
Saudi Arabia

SIDI HAMZAH, SAUDI ARABIA


Home > Middle East > Saudi Arabia
Elevation: 2087 feet     Latitude: 24 33N     Longitude: 039 42E

WEATHER
 
SELECT A DAY
Number of Records: 180,821;   Date Range: 7/1/96 - 8/30/14
 
SHARE

PRINT THIS DATA

[ ← Previous Day ]
WEATHER ALMANAC - JANUARY 31, 2013
[ Next Day → ]
[ °C ]   °F
Weather ElementAverageHighLow
Temperature63.5 °F69.8 °F (4:00 pm)59 °F (11:00 pm)
Dewpoint39.4 °F46.4 °F (1:00 am)28.4 °F (4:00 pm)
Humidity39.5 %55 % (3:00 am)16 % (3:00 pm)
Barometer29.84 in29.95 in (11:00 pm)29.73 in (3:00 am)
Wind Speed12 mph18.4 mph (4:00 pm)
Weather ElementAverage
Visibility6.1 mi
Wind DirectionWSW (250.6 °)

Weather ElementTotal
Precipitation---
Heating Degree Days0.6 (Base 65)
Growing Degree Days14.4 (Base 50)
Averaged from 31 records on January 31, 2013
WEATHER CONDITIONS BREAKOUT
WIND DIRECTION BREAKOUT
WEATHER BY HOUR - JANUARY 31, 2013
[ °C ]   °F
Local TimeTemperatureDewpointHumidityBarometerVisibilityWind DirectionWind SpeedGust SpeedPrecipitationEventsConditions
12:00 AM64.4 °F44.6 °F49 %29.83 inWest (270°)11.5 mphClear
1:00 AM64.4 °F46.4 °F52 %29.80 inWest (260°)9.2 mphClear
2:00 AM64.4 °F44.6 °F49 %29.80 inWSW (250°)13.8 mphClear
3:00 AM63.0 °F46.0 °F44 %29.73 in6.0 miWest (260°)12.7 mphClear
3:00 AM62.6 °F46.4 °F55 %29.80 inWest (260°)12.7 mphClear
4:00 AM62.6 °F44.6 °F52 %29.80 inWest (270°)11.5 mphClear
5:00 AM62.6 °F44.6 °F52 %29.80 inWSW (250°)9.2 mphClear
6:00 AM62.6 °F42.8 °F48 %29.80 in6.2 miWest (280°)11.5 mphScattered Clouds
6:00 AM63.0 °F43.0 °F36 %29.75 in6.0 miWest (280°)11.5 mphScattered Clouds
7:00 AM60.8 °F42.8 °F52 %29.83 in6.2 miWest (280°)16.1 mphMostly Cloudy
8:00 AM60.8 °F44.6 °F55 %29.86 in5.6 miWNW (290°)11.5 mphMostly Cloudy
9:00 AM61.0 °F41.0 °F36 %29.82 in6.0 miWest (280°)9.2 mphScattered Clouds
9:00 AM60.8 °F41.0 °F48 %29.86 in6.2 miWest (280°)9.2 mphMostly Cloudy
10:00 AM60.8 °F41.0 °F48 %29.89 in6.2 miWNW (290°)9.2 mphMostly Cloudy
11:00 AM62.6 °F41.0 °F45 %29.89 in6.2 miWest (280°)9.2 mphMostly Cloudy
12:00 PM64.4 °F41.0 °F42 %29.89 in6.2 miWest (260°)5.8 mphMostly Cloudy
12:00 PM64.0 °F41.0 °F31 %29.84 in6.0 miWest (260°)5.8 mphPartly Cloudy
1:00 PM66.2 °F39.2 °F37 %29.86 in6.2 miWSW (250°)11.5 mphScattered Clouds
2:00 PM66.2 °F39.2 °F37 %29.86 in6.2 miWSW (250°)11.5 mphScattered Clouds
3:00 PM68.0 °F32.0 °F16 %29.75 in6.0 miSSW (210°)15.0 mphScattered Clouds
3:00 PM68.0 °F32.0 °F26 %29.80 in6.2 miSSW (210°)15.0 mphMostly Cloudy
4:00 PM69.8 °F28.4 °F21 %29.83 in6.2 miWest (260°)18.4 mphScattered Clouds
5:00 PM68.0 °F32.0 °F26 %29.83 in6.2 miSW (220°)16.1 mphScattered Clouds
6:00 PM66.2 °F35.6 °F32 %29.83 inSSW (210°)17.3 mphClear
6:00 PM66.0 °F36.0 °F21 %29.78 in6.0 miSSW (210°)17.3 mphClear
7:00 PM62.6 °F39.2 °F42 %29.86 inSSW (210°)17.3 mphClear
8:00 PM62.6 °F35.6 °F37 %29.89 inSSW (210°)17.3 mphClear
9:00 PM61.0 °F34.0 °F24 %29.86 in6.0 miSW (230°)8.1 mphClear
9:00 PM60.8 °F33.8 °F36 %29.89 inSW (230°)8.1 mphClear
10:00 PM60.8 °F33.8 °F36 %29.92 inSW (230°)10.4 mphClear
11:00 PM59.0 °F33.8 °F39 %29.95 inWSW (240°)9.2 mphClear
Hourly data recorded from OEMA, located miles away from Sidi Hamzah, Saudi Arabia







STORIES FROM OUR PARTNERS